Regional Weather Roundup
Issued by NWS

Home | Current Version | Previous Version | Graphics & Text | Print | Product List | Glossary Off
Versions: 1 2 3 4 5 6 7 8 9 10 11 12 13 14 15 16 17 18 19 20 21 22 23 24 25 26 27 28 29 30 31 32 33 34 35 36 37 38 39 40 41 42 43 44 45 46 47 48 49 50

000
ASUS43 KMKX 260811
RWRWI

WISCONSIN REGIONAL WEATHER ROUNDUP
NATIONAL WEATHER SERVICE MILWAUKEE/SULLIVAN WI
300 AM CDT WED JUL 26 2017

NOTE: "FAIR" INDICATES FEW OR NO CLOUDS BELOW 12,000 FEET WITH NO
SIGNIFICANT WEATHER AND/OR OBSTRUCTIONS TO VISIBILITY.

WIZ001-002-006>008-014>016-023>028-260900-
NORTHWEST WISCONSIN

CITY           SKY/WX    TMP DP  RH WIND       PRES   REMARKS
SUPERIOR ARPT  NOT AVBL
ASHLAND        CLOUDY    69  68  96 SW6       29.92F
HAYWARD        CLOUDY    70  68  93 S6        29.96F
SIREN          CLOUDY    70  69  96 CALM      29.96R FOG
CUMBERLAND     CLOUDY    68  66  94 S5        29.98F FOG
RICE LAKE      CLOUDY    70  68  94 CALM      29.98F
CHETEK         CLOUDY    70  69  96 CALM      29.97F
LADYSMITH      CLOUDY    70  67  92 S7        30.00F
EAU CLAIRE     CLOUDY    71  69  93 CALM      29.99F
MENOMONIE      CLOUDY    71  70  97 SE5       29.99S
NEW RICHMOND   LGT RAIN  73  72  96 SW3       29.98S
OSCEOLA        CLOUDY    73  73 100 S6        29.99S
$$

WIZ003>005-009-010-017-018-260900-
NORTH CENTRAL WISCONSIN

CITY           SKY/WX    TMP DP  RH WIND       PRES   REMARKS
MANITOWISH WTR CLOUDY    68  68 100 SW6       29.95F
ARBOR VITAE    CLOUDY    69  67  91 S9        29.97F
WOODRUFF       CLOUDY    69  67  91 S9        29.97F
RHINELANDER    MOCLDY    69  66  90 S10G17    30.00F
EAGLE RIVER    CLOUDY    68  66  92 SW5       29.97F
LAND O LAKES   CLOUDY    69  65  88 SW3       29.99F
PHILLIPS       MOCLDY    69  68  97 S7        29.98F
TOMAHAWK         N/A     66  64  93 CALM      30.01F
MEDFORD        RAIN      67  66  96 S8        30.02F
MERRILL        NOT AVBL
$$

WIZ029-030-035-036-043>047-260900-
CENTRAL WISCONSIN

CITY           SKY/WX    TMP DP  RH WIND       PRES   REMARKS
WAUSAU         TSTM      68  66  93 SW17G26   30.04R VSB 3/4
MOSINEE        CLOUDY    66  64  94 S14       30.03F
MARSHFIELD     CLOUDY    68  65  90 MISG      30.07R
STEVENS POINT  CLOUDY    66  65  95 NW3       30.06R
WAUPACA        CLOUDY    69  62  77 S5        30.04F
WAUTOMA        MOCLDY    68  63  84 S5        30.05F
WISC RAPIDS    CLOUDY    69  66  90 S7        30.03F
CAMP DOUGLAS   MOCLDY    69  67  92 S6        30.03F
$$

WIZ011>013-019>022-031-037>040-048>050-260900-
NORTHEAST WISCONSIN

CITY           SKY/WX    TMP DP  RH WIND       PRES   REMARKS
ANTIGO         CLOUDY    65  64  97 SW10      30.04F
SHAWANO        TSTM      69  63  82 S3        30.04S
OCONTO         CLOUDY    68  61  78 SW6       30.02F
STURGEON BAY     N/A     68  61  78 S16       30.01F
GREEN BAY      CLOUDY    67  62  84 S9        30.03F
MANITOWOC      CLOUDY    69  59  70 S8        30.07F
APPLETON       MOCLDY    66  57  72 S10       30.04F
CLINTONVILLE   CLOUDY   N/A N/A N/A S5        30.04F
OSHKOSH        PTCLDY    67  61  81 S13       30.05F
$$

WIZ032>034-041-042-053>061-260900-
SOUTHWEST WISCONSIN

CITY           SKY/WX    TMP DP  RH WIND       PRES   REMARKS
LA CROSSE      MOCLDY    76  69  79 SE6       30.00F
SPARTA         CLOUDY    69  66  90 CALM      30.03F
VIROQUA        MOCLDY    70  69  96 S7        30.05F
BOSCOBEL       CLOUDY    72  67  84 SW5       30.04F
PRAIRIE DU CHI CLOUDY    74  65  75 SE3       30.03F
PLATTEVILLE    CLOUDY    68  68 100 S6        30.08R
$$

WIZ056-057-062-063-064-067-068-260900-
SOUTH CENTRAL WISCONSIN

CITY           SKY/WX    TMP DP  RH WIND       PRES   REMARKS
REEDSBURG      CLOUDY    69  67  95 S5        30.05S
BARABOO/DELLS  CLOUDY    70  62  76 S7G17     30.06S
LONE ROCK      PTCLDY    70  66  87 SW3       30.06S
MINERAL POINT  PTCLDY    68  68 100 SE7       30.08S
MADISON        PTCLDY    70  62  76 S8        30.07F
MIDDLETON      PTCLDY    69  62  78 S5        30.08S
WATERTOWN      CLOUDY    65  63  94 SE5       30.09S
MONROE         CLOUDY    64  61  88 S8        30.08F
JANESVILLE     CLOUDY    66  61  82 SE3       30.09S
$$

WIZ051-052-058>065-066-070>072-260900-
SOUTHEAST WISCONSIN

CITY           SKY/WX    TMP DP  RH WIND       PRES   REMARKS
MILWAUKEE      CLOUDY    69  60  73 S9        30.08F
WAUKESHA       PTCLDY    64  55  72 S5        30.11F
MILWAUKEE/TIMM CLOUDY    68  54  60 S8        30.10F
RACINE         MOCLDY    69  60  73 S8        30.12F
KENOSHA        MOCLDY    67  58  72 S5        30.12F
FOND DU LAC    CLOUDY    67  59  75 S10       30.06F
SHEBOYGAN      MOCLDY    66  61  84 S7        30.08F
WEST BEND      CLOUDY    64  59  82 S3        30.09F
JUNEAU         PTCLDY    65  61  87 SE5       30.09F
$$

LSZ147-162-260900-
LAKE SUPERIOR

STATION/POSITION TIME  TEMP    WIND        PRES    WAVE
                       AIR SEA DIR/SP/G            HT/PER
                 (UTC) (F)     (DEG/KT/KT) (MB)    (FT/S)
W MID LAKE BUOY  0750   56 52  280/  4/  4 1011.6F   1/ 4
DEVILS ISLAND    0800   66     260/ 14/ 16 1011.4F
PORT WING        0730   66     180/  5/  7 1012.5S
SAXON HARBOR     0740   72     190/  6/  8 1012.2F
$$

LMZ867-665-643>646-260900-
LAKE MICHIGAN

STATION/POSITION TIME  TEMP    WIND        PRES    WAVE
                       AIR SEA DIR/SP/G            HT/PER
                 (UTC) (F)     (DEG/KT/KT) (MB)    (FT/S)
CHAMBERS ISLAND  0740   70     180/  9/ 16 1015.2F
S GREEN BAY BUOY 0800   71 72  190/ 17/ 21 1015.8
N MID LAKE BUOY  0750   67 66  180/ 21/ 27 1017.2F   4/ 5
NORTHPORT PIER   0800   66     150/  9/ 14 1015.9
KEWAUNEE LAKESHO 0748   69     200/  9/ 11 1017.0F
SHEBOYGAN LAKESH 0800   70     210/ 11/ 13 1018.1F
PORT WASHINGTON  0740   70     200/  4/  9 1019.6F
ATWATER BUOY     0739   69 68  180/ 10/ 12 1018.8F
MILWAUKEE LAKESH 0750   70     190/ 11/ 13   N/A
S MID LAKE BUOY  0750   72 71  190/ 14/ 14 1020.1S   1/ 4
KENOSHA   LAKESH 0800   70     170/  8/  9 1019.3
$$

TC  - TEMPERATURE IN CELSIUS
VSB - VISIBILITY IN STATUTE MILES
WCI - WIND CHILL INDEX
HX  - HEAT INDEX





USA.gov is the U.S. government's official web portal to all federal, state and local government web resources and services.